Cervinia, Italy 16 day weather forecast

Slopes altitude range 2050 m - 3480m

Number of lifts: 57 Pistes: 350km

In some cases the lift and piste totals shown are for the ski domain (e.g. Three Valleys) rather than individual resort (e.g. Courchevel)

Overview

The 16 day weather forecast is fully updated 4 times every day.

    • Wed 23 MAY 2018
    • Wed 23
    • 0C 2C
    • Thu 24 MAY 2018
    • Thu 24
    • 1C 4C
    • Fri 25 MAY 2018
    • Fri 25
    • 3C 6C
    • Sat 26 MAY 2018
    • Sat 26
    • 4C 9C
    • Sun 27 MAY 2018
    • Sun 27
    • 6C 11C
    • Mon 28 MAY 2018
    • Mon 28
    • 6C 10C
    • Tue 29 MAY 2018
    • Tue 29
    • 5C 9C
    • Wed 30 MAY 2018
    • Wed 30
    • 9C 13C
    • Thu 31 MAY 2018
    • Thu 31
    • 9C 14C
    • Fri 01 JUN 2018
    • Fri 01
    • 10C 15C
    • Sat 02 JUN 2018
    • Sat 02
    • 13C 18C
    • Sun 03 JUN 2018
    • Sun 03
    • 12C 16C
    • Mon 04 JUN 2018
    • Mon 04
    • 8C 12C
    • Tue 05 JUN 2018
    • Tue 05
    • 8C 17C
    • Wed 06 JUN 2018
    • Wed 06
    • 6C 11C
    • Thu 07 JUN 2018
    • Thu 07
    • 7C 16C

Date:

Time Type 0°C level Temp Chill Snow Cloud Speed Gust Dir Press
3:00 2684m -1°C -1_1 4cm 100% 1mph 1mph 1017mB
6:00 2768m -1°C -1_1 3cm 100% 1mph 1mph 1017mB
9:00 2886m 0°C 0_0 3cm 100% 0mph 1mph 1017mB
12:00 3043m 2°C 2_3 3cm 100% 3mph 4mph 1016mB
15:00 3150m 2°C 2_3 5cm 100% 3mph 3mph 1016mB
18:00 3152m 2°C 2_3 8cm 100% 3mph 4mph 1017mB
21:00 3033m 1°C 1_2 8cm 100% 2mph 2mph 1019mB
0:00 2993m 1°C 1_3 6cm 100% 3mph 3mph 1019mB
3:00 2356m -4°C -4_2 1cm 67% 2mph 3mph 1019mB
6:00 2934m -4°C -4_0 0cm 79% 0mph 0mph 1019mB
9:00 3214m 1°C 1_2 0cm 90% 2mph 2mph 1019mB
12:00 3409m 4°C 4_2 0cm 90% 2mph 2mph 1018mB
15:00 3569m 4°C 4_5 0cm 96% 5mph 6mph 1016mB
18:00 3474m 5°C 5_7 0cm 94% 7mph 8mph 1017mB
21:00 2854m -1°C -1_2 0cm 85% 2mph 3mph 1020mB
0:00 2730m -2°C -2_1 0cm 89% 1mph 1mph 1020mB
3:00 2690m -2°C -2_1 0cm 53% 1mph 1mph 1019mB
6:00 3715m -2°C -2_0 0cm 72% 0mph 0mph 1019mB
9:00 3687m 3°C 3_4 0cm 60% 4mph 4mph 1018mB
12:00 3820m 6°C 6_4 0cm 76% 4mph 5mph 1017mB
15:00 3872m 6°C 6_7 0cm 93% 7mph 8mph 1017mB
18:00 3890m 6°C 6_6 0cm 77% 6mph 7mph 1017mB
21:00 4003m 1°C 1_1 0cm 17% 1mph 1mph 1019mB
0:00 4031m 1°C 1_5 0cm 58% 5mph 6mph 1020mB
3:00 4049m 1°C 1_7 0cm 99% 7mph 7mph 1020mB
6:00 4027m 1°C 1_4 0cm 98% 4mph 5mph 1020mB
9:00 4046m 4°C 4_2 0cm 99% 2mph 2mph 1019mB
12:00 4073m 9°C 9_3 0cm 100% 3mph 3mph 1019mB
15:00 3896m 9°C 9_3 0cm 100% 3mph 4mph 1019mB
18:00 3777m 9°C 9_5 0cm 100% 5mph 5mph 1020mB
21:00 3852m 3°C 3_3 0cm 100% 3mph 3mph 1022mB
0:00 4092m 3°C 3_7 0cm 100% 7mph 8mph 1021mB
3:00 4155m 3°C 3_7 0cm 98% 7mph 9mph 1020mB
6:00 4095m 2°C 2_8 0cm 82% 8mph 9mph 1020mB
9:00 4022m 6°C 6_3 0cm 94% 3mph 3mph 1020mB
12:00 4012m 11°C 11_3 0cm 97% 3mph 3mph 1018mB
15:00 4013m 11°C 11_1 0cm 100% 1mph 2mph 1017mB
18:00 3853m 11°C 11_5 0cm 100% 5mph 6mph 1018mB
21:00 3840m 3°C 3_5 0cm 100% 5mph 6mph 1020mB
0:00 3943m 3°C 3_8 0cm 100% 8mph 9mph 1019mB
3:00 3979m 2°C 2_9 0cm 99% 9mph 11mph 1019mB
6:00 3939m 2°C 2_7 0cm 99% 7mph 8mph 1018mB
9:00 3918m 6°C 6_8 0cm 100% 8mph 8mph 1017mB
12:00 3946m 10°C 10_11 0cm 97% 11mph 11mph 1016mB
15:00 3924m 11°C 11_10 0cm 100% 10mph 12mph 1015mB
18:00 3900m 11°C 11_9 0cm 100% 9mph 11mph 1015mB
21:00 3934m 4°C 4_9 0cm 98% 9mph 10mph 1017mB
0:00 3859m 4°C 4_8 0cm 94% 8mph 9mph 1017mB
3:00 3811m 3°C 3_8 0cm 94% 8mph 10mph 1017mB
6:00 3612m 3°C 3_8 0cm 97% 8mph 9mph 1017mB
9:00 3681m 5°C 5_8 0cm 98% 8mph 8mph 1016mB
12:00 3811m 9°C 9_8 0cm 97% 8mph 8mph 1015mB
15:00 3894m 10°C 10_3 0cm 96% 3mph 4mph 1014mB
18:00 3910m 10°C 10_1 0cm 98% 1mph 2mph 1014mB
21:00 4075m 4°C 4_5 0cm 100% 5mph 6mph 1016mB
0:00 3997m 4°C 4_6 0cm 100% 6mph 8mph 1016mB
3:00 4025m 3°C 3_6 0cm 18% 6mph 8mph 1015mB
6:00 4012m 2°C 2_5 0cm 29% 5mph 6mph 1015mB
9:00 3911m 9°C 9_6 0cm 30% 6mph 6mph 1014mB
12:00 3962m 13°C 13_8 0cm 47% 8mph 8mph 1013mB
15:00 4008m 14°C 14_7 0cm 36% 7mph 8mph 1012mB
18:00 3952m 14°C 14_5 0cm 28% 5mph 6mph 1013mB
21:00 3924m 7°C 7_1 0cm 61% 1mph 1mph 1015mB
0:00 3935m 6°C 6_2 0cm 81% 2mph 3mph 1016mB
3:00 3921m 5°C 5_3 0cm 99% 3mph 3mph 1015mB
6:00 3880m 4°C 4_1 0cm 79% 1mph 1mph 1016mB
9:00 3815m 9°C 9_6 0cm 32% 6mph 5mph 1015mB
12:00 3865m 14°C 14_7 0cm 46% 7mph 6mph 1015mB
15:00 3953m 13°C 13_4 0cm 73% 4mph 3mph 1014mB
18:00 3934m 13°C 13_2 0cm 76% 2mph 2mph 1015mB
21:00 3895m 8°C 8_6 0cm 53% 6mph 6mph 1017mB
0:00 3860m 7°C 7_5 0cm 46% 5mph 6mph 1017mB
3:00 3845m 5°C 5_5 0cm 11% 5mph 6mph 1017mB
6:00 3822m 5°C 5_4 0cm 24% 4mph 4mph 1017mB
9:00 3768m 10°C 10_5 0cm 27% 5mph 4mph 1017mB
12:00 3858m 15°C 15_5 0cm 26% 5mph 4mph 1016mB
15:00 3930m 15°C 15_4 0cm 46% 4mph 3mph 1016mB
18:00 3980m 15°C 15_1 0cm 48% 1mph 1mph 1016mB
Morning 1.40625mm 16.75 4017m 9°C 9_4 0cm 63% 4mph 6mph 1018mB
Afternoon 0.359375mm 4.1875 4115m 18°C 18_3 0cm 67% 3mph 4mph 1015mB
Morning 0.71875mm 7.1875 3989m 10°C 10_2 0cm 98% 2mph 3mph 1014mB
Afternoon 1.48438mm 8.0625 3901m 16°C 16_4 0cm 99% 4mph 4mph 1012mB
Morning 1.93229mm 5.5625 3368m 8°C 8_8 0cm 100% 8mph 11mph 1013mB
Afternoon 0.828125mm 4.9375 3178m 12°C 12_9 0cm 80% 9mph 15mph 1013mB
Morning 0.322917mm 3.125 3224m 4°C 4_9 0cm 75% 9mph 15mph 1014mB
Afternoon 0.1875mm 1.625 3448m 17°C 17_4 0cm 80% 4mph 5mph 1010mB
Morning 1.5mm 3.125 3024m 6°C 6_8 0cm 99% 8mph 12mph 1012mB
Afternoon 0.692708mm 3.3125 3176m 11°C 11_9 0cm 75% 9mph 14mph 1012mB
Morning 0mm 0 3436m 4°C 4_11 0cm 23% 11mph 17mph 1015mB
Afternoon 0mm 0 3498m 16°C 16_8 0cm 84% 8mph 12mph 1013mB

16 day outlook at a glance

Forecast issued: 23/05/2018 04:24:29

Chat

Your comments and questions. In a resort? Let us know what it's like!


Characters left 250

For terms and conditions see Readers Comments on the Cookie and privacy policy page.